Regional Weather Roundup
Issued by NWS

Home | Current Version | Previous Version | Graphics & Text | Print | Product List | Glossary On
Versions: 1 2 3 4 5 6 7 8 9 10 11 12 13 14 15 16 17 18 19 20 21 22 23 24 25 26 27 28 29 30 31 32 33 34 35 36 37 38 39 40 41 42 43 44 45 46 47 48 49 50
000
ASUS43 KDMX 260806
RWRIA

WEATHER ROUNDUP FOR IOWA
NATIONAL WEATHER SERVICE DES MOINES IA
300 AM CDT THU APR 26 2018

NOTE: "FAIR" INDICATES FEW OR NO CLOUDS BELOW 12,000 FEET WITH NO
SIGNIFICANT WEATHER AND/OR OBSTRUCTIONS TO VISIBILITY.

* - THESE STATIONS ARE NOT NWS STATIONS...THUS NOT UNDER NWS
QUALITY CONTROL.  THEY ALSO DO NOT REPORT WEATHER SUCH
AS PRECIPITATION OR FOG.

IAZ001>003-012>014-020>022-031>034-043>046-260900-
   NORTHWEST IOWA

CITY           SKY/WX    TMP DP  RH WIND       PRES   REMARKS
CARROLL *      CLOUDY    39  30  70 CALM      29.95F
CHEROKEE *     CLOUDY    36  32  87 CALM      29.94F
DENISON *      CLOUDY    37  30  75 CALM      29.97F
LE MARS *      PTCLDY    39  32  75 S7        29.93F WCI  34
ORANGE CITY *  CLOUDY    43  32  65 S6        29.92F
SHELDON *        N/A     39  30  70 CALM      29.91S
SIOUX CITY     PTCLDY    45  34  65 SW10      29.94F
SPENCER        CLOUDY    38  32  79 S7        29.92F WCI  33
STORM LAKE *   PTCLDY    43  27  52 SW7       29.94F
$$

IAZ055>058-069>071-079>083-090>094-260900-
   SOUTHWEST IOWA

CITY           SKY/WX    TMP DP  RH WIND       PRES   REMARKS
ATLANTIC *     CLOUDY    34  32  93 CALM      29.97F
AUDUBON *      CLOUDY    30  27  86 CALM      29.97F
CLARINDA *     CLOUDY    36  34  93 CALM      30.00F
COUNCIL BLFS * PTCLDY    43  37  81 SW5       29.97S
CRESTON *      CLOUDY    39  36  87 W5        29.98F
HARLAN  *      CLOUDY    37  30  75 CALM      30.00F
LAMONI         CLEAR     38  35  89 W7        29.96F WCI  33
RED OAK *      CLOUDY    34  32  93 CALM      29.98F
SHENANDOAH *   CLOUDY    37  36  93 CALM      29.98F
$$

IAZ047>049-059>061-072>074-084-260900-
   CENTRAL IOWA

CITY           SKY/WX    TMP DP  RH WIND       PRES   REMARKS
AMES           CLOUDY    39  32  76 CALM      29.95F
ANKENY *       CLOUDY    37  32  81 CALM      29.97F
BOONE *        PTCLDY    45  34  65 E3        29.94F
CHARITON *     CLEAR     41  32  70 W8        29.95F
DES MOINES     CLOUDY    47  31  53 CALM      29.96F
GRINNELL*      CLOUDY    43  30  59 CALM      29.96S
KNOXVILLE *    CLOUDY    39  28  65 W7        29.94F WCI  34
MARSHALLTOWN   CLOUDY    39  32  76 NW3       29.94F
NEWTON *       CLOUDY    41  30  65 CALM      29.95F
PELLA *        CLOUDY    43  29  57 CALM      29.96F
PERRY *        FAIR      38  27  64 S6        29.96F WCI  34
$$

IAZ004>006-015-016-023>025-035-036-260900-
   NORTH CENTRAL IOWA

CITY           SKY/WX    TMP DP  RH WIND       PRES   REMARKS
ALGONA *       CLOUDY    41  36  81 S8        29.93F
CLARION *      PTCLDY    41  34  75 SE5       29.94F
ESTHERVILLE    CLOUDY    40  34  79 S8        29.92F WCI  34
FORT DODGE *   CLOUDY    39  34  82 CALM      29.95F
MASON CITY     CLOUDY    38  35  89 CALM      29.94F
FOREST CITY *  FAIR      36  36 100 CALM      29.93F
WEBSTER CITY * CLOUDY    41  36  81 SE6       29.93F
IOWA FALLS *   FAIR      42  36  79 CALM      29.96F
$$

IAZ007>011-017>019-026>030-037>042-050>054-066-260900-
   NORTHEAST IOWA

CITY           SKY/WX    TMP DP  RH WIND       PRES   REMARKS
CEDAR RAPIDS   FAIR      42  29  59 N6        29.93F
CHARLES CITY * FAIR      41  36  81 CALM      29.94F
CLINTON *      FAIR      40  33  76 SE8       29.97F WCI  34
DECORAH *      MOCLDY    41  30  65 CALM      29.93F
DUBUQUE        FAIR      40  32  73 S7        29.94F
MONTICELLO *   FAIR      34  30  86 CALM      29.94F
OELWEIN *      FAIR      39  36  87 E6        29.94F WCI  35
WATERLOO       FAIR      36  32  85 CALM      29.94F
$$

IAZ064-065-067-068-078-260900-
   EAST CENTRAL IOWA

CITY           SKY/WX    TMP DP  RH WIND       PRES   REMARKS
DAVENPORT      FAIR      40  32  73 SE10      29.97F WCI  33
IOWA CITY      FAIR      39  31  72 CALM      29.95F
MT. PLEASANT * CLEAR     37  32  81 CALM      29.94F
MUSCATINE *    FAIR      36  30  80 CALM      29.95F
QUAD CITIES    FAIR      37  31  78 E5        29.96F WCI  33
$$

IAZ062-063-075>077-085>089-095>099-260900-
   SOUTHEAST IOWA

CITY           SKY/WX    TMP DP  RH WIND       PRES   REMARKS
BURLINGTON     CLEAR     43  34  70 W3        29.93F
FAIRFIELD *    CLEAR     39  25  56 NW8       29.93F WCI  34
FORT MADISON * CLEAR     48  37  66 SW3       29.95F
KEOKUK *       CLEAR     41  37  87 W5        29.94F
OSKALOOSA *    FAIR      40  27  59 N7        29.96S WCI  35
CENTERVILLE *  FAIR      39  30  70 CALM      29.97S
OTTUMWA        CLEAR     38  28  67 NW6       29.94F WCI  33
WASHINGTON *   CLEAR     45  28  53 NE5       29.95F
$$

ABBREVIATIONS USED IN REMARKS
   TC - TEMPERATURES IN CELSIUS
  WCI - WIND CHILL INDEX
   HX - HEAT INDEX
  VSB - VISIBILITY
$$





USA.gov is the U.S. government's official web portal to all federal, state and local government web resources and services.